This is the latest recevied weather packets stored in our database for station/object W6ORV. If no packets are shown the sender has not sent any weather packets the latest 10 day(s).
| Time | Temp. | Humidity | Pressure | Rain* | Wind** | Luminosity | Snow |
|---|---|---|---|---|---|---|---|
| 1777492094 | 26.11° C | 37% | 4301.4 hPa | 0 mm | - | 803 W/m² | - |
| 1777491791 | 26.11° C | 34% | 4301.5 hPa | 0 mm | - | 799 W/m² | - |
| 1777491487 | 26.67° C | 33% | 4301.5 hPa | 0 mm | - | 795 W/m² | - |
| 1777491185 | 26.11° C | 38% | 4301.7 hPa | 0 mm | - | 798 W/m² | - |
| 1777490880 | 26.11° C | 36% | 4301.7 hPa | 0 mm | - | 804 W/m² | - |
| 1777490576 | 26.11° C | 36% | 4301.8 hPa | 0 mm | - | 812 W/m² | - |
| 1777490273 | 26.11° C | 38% | 4301.8 hPa | 0 mm | - | 821 W/m² | - |
| 1777489970 | 25.56° C | 37% | 4301.8 hPa | 0 mm | - | 831 W/m² | - |
| 1777489668 | 25° C | 36% | 4301.7 hPa | 0 mm | - | 822 W/m² | - |
| 1777489364 | 24.44° C | 36% | 4301.9 hPa | 0 mm | - | 809 W/m² | - |
| 1777489061 | 25° C | 35% | 4301.8 hPa | 0 mm | - | 810 W/m² | - |
| 1777488758 | 25° C | 39% | 4301.8 hPa | 0 mm | - | 819 W/m² | - |
| 1777488456 | 23.89° C | 37% | 4302.1 hPa | 0 mm | - | 831 W/m² | - |
| 1777488154 | 23.33° C | 39% | 4302.2 hPa | 0 mm | - | 792 W/m² | - |
| 1777487852 | 23.89° C | 39% | 4302.4 hPa | 0 mm | - | 720 W/m² | - |
| 1777487550 | 23.89° C | 39% | 4302.3 hPa | 0 mm | - | 789 W/m² | - |
| 1777487246 | 23.33° C | 41% | 4302.4 hPa | 0 mm | - | 809 W/m² | - |
| 1777486942 | 23.33° C | 39% | 4302.2 hPa | 0 mm | - | 819 W/m² | - |
| 1777486639 | 23.89° C | 40% | 4302.4 hPa | 0 mm | - | 803 W/m² | - |
| 1777486337 | 23.33° C | 42% | 4302.5 hPa | 0 mm | - | 858 W/m² | - |
| 1777486034 | 23.89° C | 41% | 4302.4 hPa | 0 mm | - | 838 W/m² | - |
| 1777485731 | 23.89° C | 42% | 4302.7 hPa | 0 mm | - | 835 W/m² | - |
| 1777485426 | 23.89° C | 43% | 4302.7 hPa | 0 mm | - | 812 W/m² | - |
| 1777485122 | 22.78° C | 47% | 4302.6 hPa | 0 mm | - | 845 W/m² | - |
| 1777484819 | 21.67° C | 46% | 4302.6 hPa | 0 mm | - | 851 W/m² | - |
* Rain latest hour (hover to see other rain measurements)
** Current wind speed in m/s (hover to see current wind gust speed)